Flag for Germany Weather past 2 weeks in Freising, Bavaria, Germany

Now
35 °F

Partly sunny.


Feels Like: 29 °F
Forecast: 33 / 38 °F
Wind: 7 mph from Southwest

Location: Muenchen Flughafen

Current Time: Jan 28, 2015 at 1:55:30 PM

Latest Report: Jan 28, 2015 at 1:00 PM


Visibility: 19 mi

Pressure: 30.06 "Hg

Humidity: 76%

Dew point: 28 °F

Location of FreisingLocation

Historic Weather in Freising — Graph

°F

Freising temperature yesterday

Maximum temperature yesterday: 35 °F (at 12:00 PM)
Minimum temperature yesterday: 32 °F (at 12:00 AM)
Average temperature yesterday: 33 °F

Past Weeks' High & Low Weather Summary

 TemperatureHumidityPressure
High57 °F (Jan 13, 3:00 PM)100% (Jan 20, 4:00 AM)30.43 "Hg (Jan 20, 4:00 AM)
Low25 °F (Jan 16, 5:00 AM)24% (Jan 13, 2:00 PM)29.72 "Hg (Jan 16, 8:00 PM)
Average34 °F87%30.06 "Hg
* Reported Jan 13 1:00 PM — Jan 28 1:00 PM, Freising, Weather by CustomWeather, © 2014

Note: Actual official high and low records may vary slightly from our data, if they occured in-between our weather recording intervals... More about our weather records

Advertising

Freising weather history for previous 24 hours

 ConditionsComfort  
Time TempWeatherWind HumidityBarometerVisibility
1:00 PM
Jan 28
35 °FPartly sunny.7 mph76%30.06 "Hg19 mi
12:00 PM34 °FPassing clouds.7 mph79%30.11 "Hg16 mi
11:00 AM33 °FOvercast.7 mph82%30.15 "Hg12 mi
10:00 AM32 °FPartly sunny.5 mph85%30.16 "Hg7 mi
9:00 AM31 °FFog.3 mph92%30.19 "Hg4 mi
8:00 AM30 °FFog.2 mph92%30.19 "Hg3 mi
7:00 AM30 °FPassing clouds.3 mph93%30.19 "Hg6 mi
6:00 AM31 °FLow clouds.3 mph92%30.18 "Hg6 mi
5:00 AM33 °FLow clouds.3 mph93%30.19 "Hg4 mi
4:00 AM32 °FLight snow. Low clouds.5 mph94%30.20 "Hg4 mi
3:00 AM32 °FOvercast.5 mph94%30.21 "Hg7 mi
2:00 AM32 °FSnow flurries. Low clouds.3 mph95%30.22 "Hg6 mi
1:00 AM32 °FSnow flurries. Low clouds.3 mph96%30.21 "Hg6 mi
12:00 AM33 °FOvercast.5 mph94%30.21 "Hg9 mi
11:00 PM
Jan 27
33 °FSnow flurries. Overcast.5 mph92%30.22 "Hg8 mi
10:00 PM33 °FSnow flurries. Overcast.5 mph95%30.22 "Hg6 mi
9:00 PM33 °FOvercast.3 mph91%30.21 "Hg12 mi
8:00 PM33 °FOvercast.5 mph87%30.20 "Hg16 mi
7:00 PM33 °FSnow flurries. Low clouds.3 mph97%30.19 "Hg2 mi
6:00 PM33 °FSnow flurries. Low clouds.5 mph93%30.18 "Hg7 mi
5:00 PM34 °FSnow flurries. Low clouds.6 mph91%30.16 "Hg6 mi
4:00 PM34 °FLow clouds.6 mph90%30.16 "Hg9 mi
3:00 PM33 °FSnow showers. Low clouds.8 mph93%30.16 "Hg1 mi
2:00 PM34 °FSnow flurries. Low clouds.7 mph91%30.16 "Hg2 mi
1:00 PM35 °FOvercast.7 mph81%30.17 "Hg16 mi
Weather by CustomWeather, © 2014

See weather overviewHow to use our weather pages